Regional Weather Roundup
Issued by NWS

Home | Current Version | Previous Version | Graphics & Text | Print | Product List | Glossary On
Versions: 1 2 3 4 5 6 7 8 9 10 11 12 13 14 15 16 17 18 19 20 21 22 23 24 25 26 27 28 29 30 31 32 33 34 35 36 37 38 39 40 41 42 43 44 45 46 47 48 49 50
000
ASUS43 KBIS 190910
RWRND

NORTH DAKOTA REGIONAL WEATHER ROUNDUP
NATIONAL WEATHER SERVICE BISMARCK ND
400 AM CDT FRI SEP 19 2014

NOTE: "FAIR" INDICATES FEW OR NO CLOUDS BELOW 12,000 FEET WITH NO
SIGNIFICANT WEATHER AND/OR OBSTRUCTIONS TO VISIBILITY.


NDZ001>003-009>011-017-191000-
NORTHWEST NORTH DAKOTA

CITY           SKY/WX    TMP DP  RH WIND       PRES   REMARKS
WILLISTON      CLOUDY    61  53  75 SW6       29.56F
MINOT          CLOUDY    66  57  72 SW9       29.52F
MINOT AFB      CLOUDY    68  55  64 NW3       29.52F
$$

NDZ018>021-031>035-040>046-191000-
SOUTHWEST NORTH DAKOTA

CITY           SKY/WX    TMP DP  RH WIND       PRES   REMARKS
BISMARCK       CLOUDY    65  62  90 S5        29.62F
DICKINSON      CLOUDY    66  53  63 W16       29.61F
GARRISON         N/A     63  59  87 SW6       29.56F
HETTINGER ARPT LGT RAIN  66  55  67 W17G25    29.68S
$$

NDZ004>008-012>016-024-026-027-054-191000-
NORTHEAST NORTH DAKOTA

CITY           SKY/WX    TMP DP  RH WIND       PRES   REMARKS
GRAND FORKS    CLOUDY    65  57  75 S18G26    29.60F
GRND FRKS AFB  CLOUDY    66  59  77 SW23G29   29.58F
DEVILS LAKE    CLOUDY    66  55  68 S16G23    29.55F
$$

NDZ022-023-025-028>030-036>039-047>053-191000-
SOUTHEAST NORTH DAKOTA

CITY           SKY/WX    TMP DP  RH WIND       PRES   REMARKS
FARGO          CLOUDY    64  55  72 S16G24    29.69F
JAMESTOWN      CLOUDY    64  58  80 S15       29.66R
$$




USA.gov is the U.S. government's official web portal to all federal, state and local government web resources and services.